This demonstration page uses our WeatherBlox Daily Observations layout. Learn more.

Left ArrowRight Arrow

Hourly Observations for October 10, 2015

Temp ( °F °C ) Dew Point ( °F °C ) Humidity (%) Winds ( mph kmh ) Pressure ( in mb ) Visibility ( mi km ) Precip ( " mm )
12:53 am 00:53 Cloudy 69 20.6 63 17.2 81 81 NNW 7 11 30.00 1016 10 16 0.00 0.00
1:36 am 01:36 Cloudy with Strong Thunderstorms 66 19 63 17 88 88 NNW 9 15 30.03 1017 3 4 0.00 0.00
1:44 am 01:44 Cloudy with Strong Thunderstorms 64 18 63 17 94 94 N 8 13 30.03 1017 1 2 0.00 0.00
1:53 am 01:53 Cloudy with Strong Thunderstorms 64 17.8 62 16.7 93 93 NNE 7 11 30.02 1017 2 2 0.45 11.43
1:56 am 01:56 Cloudy with Heavy Rain 65 18.3 62 16.7 90 90 N 7 11 30.03 1017 2 3 0.01 0.25
2:06 am 02:06 Cloudy with Nearby Thunderstorms 64 18 63 17 94 94 N 6 9 30.03 1017 4 6 0.00 0.00
2:28 am 02:28 Cloudy with Rain 64 18 63 17 94 94 N 5 7 30.03 1017 4 6 0.00 0.00
2:53 am 02:53 Cloudy with Rain 65 18.3 63 17.2 93 93 NE 5 7 29.99 1016 4 6 0.24 6.10
3:19 am 03:19 Cloudy 65 18.3 63 17.2 93 93 E 6 9 30.00 1016 10 16 0.00 0.03
3:53 am 03:53 Cloudy 65 18.3 62 16.7 90 90 SSW 3 6 29.98 1015 10 16 0.01 0.25
4:00 am 04:00 Cloudy 64 18 63 17 94 94 W 3 6 30.00 1016 10 16 0.00 0.00
4:11 am 04:11 Cloudy with Nearby Thunderstorms 65 18.3 63 17.2 93 93 W 5 7 30.03 1017 5 8 0.04 1.02
4:16 am 04:16 Cloudy with Strong Thunderstorms 64 18 63 17 94 94 VRB 3 6 30.00 1016 3 4 0.00 0.00
4:27 am 04:27 Cloudy with Thunderstorms 65 18.3 63 17.2 93 93 Calm 30.00 1016 6 10 0.09 2.29
4:36 am 04:36 Cloudy with Nearby Thunderstorms 64 18 63 17 94 94 Calm 30.00 1016 5 8 0.00 0.00
4:45 am 04:45 Cloudy with Nearby Thunderstorms 65 18.3 62 16.7 90 90 WNW 5 7 30.03 1017 9 14 0.11 2.79
4:50 am 04:50 Cloudy with Light Rain 64 18 63 17 94 94 W 3 6 30.03 1017 8 13 0.00 0.00
4:53 am 04:53 Cloudy with Light Rain 65 18.3 63 17.2 93 93 Calm 29.99 1016 7 11 0.12 3.05
5:03 am 05:03 Cloudy with Light Rain 64 18 63 17 94 94 NNW 7 11 30.00 1016 5 8 0.00 0.00
5:10 am 05:10 Cloudy with Light Rain 64 18 63 17 94 94 NNW 3 6 30.00 1016 10 16 0.00 0.00
5:46 am 05:46 Cloudy with Light Rain 65 18.3 62 16.7 90 90 Calm 30.00 1016 10 16 0.02 0.51
5:53 am 05:53 Cloudy with Light Rain 65 18.3 62 16.7 90 90 Calm 29.97 1015 10 16 0.02 0.51
6:53 am 06:53 Partly Cloudy with Light Rain 65 18.3 63 17.2 93 93 Calm 29.96 1015 10 16 0.02 0.51
7:32 am 07:32 Cloudy 64 18 63 17 94 94 W 3 6 29.97 1015 8 13 0.00 0.00
7:53 am 07:53 Mostly Cloudy 64 17.8 62 16.7 93 93 Calm 29.96 1015 10 16 0.00 0.03
8:53 am 08:53 Cloudy 65 18.3 62 16.7 90 90 WNW 6 9 29.99 1016 10 16 0.00 0.00
9:53 am 09:53 Cloudy 66 18.9 62 16.7 87 87 WNW 6 9 30.01 1016 10 16 0.00 0.00
10:53 am 10:53 Cloudy 67 19.4 61 16.1 81 81 WNW 7 11 30.01 1016 10 16 0.00 0.00
11:53 am 11:53 Cloudy 66 18.9 61 16.1 84 84 NNW 9 15 30.00 1016 10 16 0.02 0.51
12:31 pm 12:31 Mostly Cloudy 67 19.4 61 16.1 81 81 NW 8 13 30.03 1017 10 16 0.00 0.00
12:53 pm 12:53 Cloudy 66 18.9 60 15.6 81 81 NW 8 13 30.00 1016 10 16 0.00 0.00
1:53 pm 13:53 Cloudy 66 18.9 60 15.6 81 81 NW 12 19 29.99 1016 10 16 0.00 0.00
2:53 pm 14:53 Cloudy 67 19.4 60 15.6 79 79 VRB 7 11 29.97 1015 10 16 0.00 0.00
3:00 pm 15:00 Cloudy 68 20 60 15.6 76 76 NW 10 17 30.00 1016 10 16 0.00 0.00
3:53 pm 15:53 Cloudy 69 20.6 60 15.6 73 73 NW 13 20 29.96 1015 10 16 0.00 0.00
4:53 pm 16:53 Partly Cloudy 69 20.6 60 15.6 73 73 NNW 13 20 29.96 1014 10 16 0.00 0.00
5:33 pm 17:33 Cloudy 68 20 60 15.6 76 76 N 5 7 29.97 1015 10 16 0.00 0.00
5:53 pm 17:53 Mostly Cloudy 69 20.6 60 15.6 73 73 NNW 7 11 29.96 1015 10 16 0.00 0.00
6:53 pm 18:53 Mostly Cloudy 67 19.4 60 15.6 79 79 NW 8 13 29.97 1015 10 16 0.00 0.00
7:53 pm 19:53 Cloudy 65 18.3 59 15 81 81 NNW 6 9 29.98 1015 10 16 0.00 0.00
8:45 pm 20:45 Cloudy 64 17.8 58 14.4 81 81 NNW 5 7 30.00 1016 10 16 0.00 0.00
8:53 pm 20:53 Cloudy 64 17.8 58 14.4 81 81 NNW 6 9 29.99 1016 10 16 0.00 0.00
9:14 pm 21:14 Cloudy 64 18 57 14 78 78 VRB 6 9 30.00 1016 10 16 0.00 0.00
9:53 pm 21:53 Cloudy 64 17.8 58 14.4 81 81 N 6 9 30.00 1016 10 16 0.00 0.00
10:53 pm 22:53 Cloudy 63 17.2 58 14.4 84 84 Calm 30.00 1016 10 16 0.00 0.00
11:35 pm 23:35 Mostly Cloudy 62 16.7 58 14.4 86 86 NNW 3 6 30.03 1017 10 16 0.00 0.00
11:53 pm 23:53 Cloudy 62 16.7 58 14.4 86 86 NW 3 6 30.00 1016 10 16 0.00 0.00

Powered by AerisWeather